Beaufort, NC

10:36 PM EDT on August 20, 2019 (GMT -0400)
Smith

Weather History for KMRH - May, 2019

Change the Weather History Date:

Thursday, May 30, 2019

  Actual Average Record
Temperature  
Mean Temperature 81 °F -  
Max Temperature 88 °F 80 °F 96 °F (1988)
Min Temperature 75 °F 65 °F 50 °F (1964)
Cooling Degree Days 16    
Growing Degree Days 31 (Base 50)    
Moisture  
Dew Point 73 °F    
Average Humidity 74    
Maximum Humidity 87    
Minimum Humidity 53    
Precipitation  
Precipitation 0.00 in - - ()
Sea Level Pressure  
Sea Level Pressure 29.88 in    
Wind  
Wind Speed 12 mph (WSW)    
Max Wind Speed 23 mph    
Max Gust Speed 31 mph    
Visibility 9 miles    
Events      
Averages and records for this station are not official NWS values.
T = Trace of Precipitation, MM = Missing Value Source: NWS Daily Summary

Daily Weather History Graph

Daily Weather History Graph

Search for Another Location

Airport or City:

Astronomy

May. 30, 2019 Rise Set
Actual Time 5:55 AM EDT 8:13 PM EDT
Civil Twilight 5:26 AM EDT 8:42 PM EDT
Nautical Twilight 4:50 AM EDT 9:17 PM EDT
Astronomical Twilight 4:12 AM EDT 9:56 PM EDT
Moon 3:47 AM EDT (5/30) 4:30 PM EDT (5/30)
Length of Visible Light 15h 15m
Length of Day
14h 17m
Waning Crescent, 15% of the Moon is Illuminated
May 30
Waning Crescent
Jun 3
New
Jun 10
First Quarter
Jun 17
Full
Jun 25
Last Quarter

Hourly Weather History & Observations

Time (EDT) Temp. Heat Index Dew Point Humidity Pressure Visibility Wind Dir Wind Speed Gust Speed Precip Events Conditions
12:58 AM 81.0 °F 85.2 °F 72.0 °F 74% 29.87 in 10.0 mi WSW 10.4 mph 19.6 mph N/A   Clear
1:58 AM 81.0 °F 84.9 °F 71.1 °F 72% 29.87 in 10.0 mi WSW 10.4 mph - N/A   Clear
2:58 AM 79.0 °F - 70.0 °F 74% 29.87 in 10.0 mi West 6.9 mph - N/A   Clear
3:58 AM 79.0 °F - 69.1 °F 72% 29.87 in 10.0 mi West 5.8 mph - N/A   Clear
4:58 AM 80.1 °F 82.9 °F 69.1 °F 69% 29.88 in 10.0 mi West 8.1 mph - N/A   Clear
5:58 AM 75.9 °F - 69.1 °F 79% 29.90 in 10.0 mi NW 3.5 mph - N/A   Clear
6:58 AM 80.1 °F 83.6 °F 71.1 °F 74% 29.91 in 10.0 mi WSW 6.9 mph - N/A   Clear
7:58 AM 80.1 °F 83.6 °F 71.1 °F 74% 29.93 in 10.0 mi SW 10.4 mph - N/A   Partly Cloudy
8:58 AM 84.0 °F 89.0 °F 71.1 °F 65% 29.93 in 10.0 mi WSW 12.7 mph - N/A   Clear
9:58 AM 84.0 °F 88.4 °F 70.0 °F 63% 29.92 in 10.0 mi SW 13.8 mph - N/A   Clear
10:58 AM 87.1 °F 90.6 °F 68.0 °F 53% 29.92 in 10.0 mi WSW 16.1 mph 24.2 mph N/A   Partly Cloudy
11:58 AM 87.1 °F 92.8 °F 71.1 °F 59% 29.91 in 10.0 mi SW 15.0 mph 23.0 mph N/A   Partly Cloudy
12:58 PM 87.1 °F 95.4 °F 73.9 °F 65% 29.90 in 10.0 mi SW 16.1 mph - N/A   Clear
1:58 PM 84.9 °F 92.1 °F 73.9 °F 69% 29.88 in 10.0 mi SW 18.4 mph 26.5 mph N/A   Partly Cloudy
2:58 PM 86.0 °F 95.1 °F 75.0 °F 70% 29.87 in 10.0 mi SW 21.9 mph 31.1 mph N/A   Clear
3:58 PM 84.9 °F 93.3 °F 75.0 °F 72% 29.86 in 10.0 mi SW 23.0 mph - N/A   Clear
4:58 PM 84.0 °F 91.9 °F 75.0 °F 74% 29.84 in 10.0 mi SW 19.6 mph 27.6 mph N/A   Clear
5:58 PM 82.9 °F 90.2 °F 75.0 °F 77% 29.83 in 10.0 mi SW 20.7 mph - N/A   Clear
6:58 PM 81.0 °F 86.7 °F 75.0 °F 82% 29.83 in 9.0 mi SW 16.1 mph - N/A   Clear
7:58 PM 80.1 °F 85.1 °F 75.0 °F 85% 29.83 in 9.0 mi SW 18.4 mph 23.0 mph N/A   Clear
8:58 PM 80.1 °F 85.1 °F 75.0 °F 85% 29.86 in 9.0 mi SSW 18.4 mph 25.3 mph N/A   Clear
9:58 PM 80.1 °F 85.4 °F 75.9 °F 87% 29.89 in 7.0 mi SW 13.8 mph - N/A   Clear
10:30 PM 81.0 °F 87.3 °F 75.9 °F 85% 29.92 in 7.0 mi WNW 13.8 mph - N/A   Mostly Cloudy
10:50 PM 81.0 °F 86.7 °F 75.0 °F 82% 29.89 in 9.0 mi SW 12.7 mph 20.7 mph N/A   Mostly Cloudy
10:58 PM 81.0 °F 86.7 °F 75.0 °F 82% 29.89 in 9.0 mi SW 10.4 mph - N/A   Scattered Clouds
11:07 PM 81.0 °F 86.7 °F 75.0 °F 82% 29.89 in 8.0 mi WSW 9.2 mph - N/A   Mostly Cloudy
11:58 PM 80.1 °F 85.1 °F 75.0 °F 85% 29.86 in 8.0 mi SW 12.7 mph - N/A   Mostly Cloudy